Wind_Speed
13 13 12 12 11 10 10 9 8 8 9 10 13 13 15 18 19 19 19 18 17 16 16 15 13 12 10 9 8 7 6 5 5 4 4 4 4 4 4 4 5 5 5
12 12 12 12 11 10 9 9 8 7 7 9 10 12 13 15 17 18 18 18 17 17 16 16 15 13 12 10 9 8 8 7 6 6 5 5 4 3 4 4 4 4 4
12 12 12 11 11 10 10 9 7 7 7 8 9 11 12 14 15 16 17 18 18 18 16 16 16 14 13 11 10 9 9 9 8 7 6 6 5 5 4 4 4 5 5
12 12 12 11 11 10 10 9 8 7 7 7 8 10 12 13 14 15 17 17 18 18 18 17 16 15 14 13 11 11 11 10 10 9 8 8 7 7 6 6 6 6 6
11 11 11 11 11 10 10 9 9 8 7 7 8 10 11 13 14 15 16 17 18 18 18 18 17 16 16 14 13 12 12 12 12 12 11 10 9 9 9 8 8 8 8
10 10 10 10 10 9 8 8 8 7 7 7 8 10 11 12 13 14 16 17 18 19 20 19 18 17 17 16 15 14 14 14 14 14 13 12 12 12 11 11 11 11 11
10 9 9 10 9 9 8 9 8 7 7 7 8 10 11 11 12 14 15 16 18 19 20 20 19 19 18 18 17 17 16 16 16 15 15 15 15 15 15 14 14 15 15
8 8 9 9 8 8 8 8 7 7 7 8 8 9 11 12 13 14 15 16 17 19 20 20 20 20 20 20 19 19 18 18 17 17 17 17 18 18 18 18 18 18 18
8 8 8 7 7 8 8 8 7 7 7 8 8 10 11 12 13 15 15 16 16 18 19 20 21 21 22 21 21 20 20 20 20 20 20 20 20 20 20 20 21 21 21
8 8 8 8 8 8 8 8 8 8 7 8 9 9 11 12 13 14 15 16 16 17 19 20 20 21 22 23 23 22 22 21 21 21 22 22 22 22 22 23 23 24 24
9 8 9 9 9 9 8 8 7 7 7 8 9 9 10 11 13 14 14 15 16 18 20 20 21 21 21 22 21 21 21 21 22 23 23 23 23 24 24 25 26 27 27
10 9 9 10 10 10 9 8 8 8 8 9 9 10 10 11 12 13 14 15 15 16 18 19 20 20 21 21 22 22 21 21 22 23 23 24 25 26 26 27 27 28 29
11 11 11 11 10 9 9 8 8 8 9 10 10 11 12 12 13 14 15 16 16 16 17 18 19 20 20 22 23 23 23 23 23 23 24 25 26 27 28 29 29 28 29
11 11 12 11 10 10 10 10 10 10 11 11 12 12 12 12 12 13 14 15 15 16 17 18 19 19 19 20 22 23 23 23 24 25 26 27 28 29 29 29 30 30 30
12 12 12 12 12 12 12 11 12 12 12 11 11 12 12 13 14 14 15 15 15 16 17 18 18 19 19 19 21 22 23 24 25 26 27 28 29 29 30 31 31 31 32
15 15 14 14 14 14 13 13 14 14 14 13 12 12 12 13 14 15 15 16 16 16 16 18 18 19 20 21 22 22 23 24 25 26 28 29 29 30 32 32 33 33 33
18 18 17 16 17 16 15 15 15 15 15 15 14 14 14 14 15 15 16 16 16 17 17 18 19 20 20 21 22 23 24 25 25 26 27 28 29 29 32 33 33 34 35
20 19 19 19 19 18 18 18 17 16 17 17 17 17 17 16 16 17 17 17 17 17 17 18 19 20 21 22 23 24 25 25 27 27 28 28 29 30 31 33 34 35 36
21 21 21 21 21 21 20 19 19 19 19 19 18 18 18 19 18 19 19 19 19 19 19 20 21 22 23 24 25 25 26 27 27 28 28 29 30 31 33 34 34 35 36
22 22 22 22 22 22 22 22 22 22 22 22 21 20 21 21 21 21 21 21 22 22 22 23 24 25 25 26 25 26 27 28 28 29 29 30 31 32 34 35 36 37 39
23 24 24 24 24 24 24 25 24 24 24 23 23 22 22 23 23 22 23 23 23 23 24 25 26 26 26 26 26 27 28 29 31 31 32 33 34 35 36 38 39 40 42
25 25 25 25 26 26 26 26 26 26 26 25 24 24 24 24 24 24 24 24 25 25 26 26 27 27 27 26 26 27 28 30 32 33 34 36 37 38 40 41 42 43 45
25 25 25 26 26 27 27 27 27 27 26 26 26 26 27 26 26 27 27 27 27 27 27 27 27 28 27 28 29 30 31 32 34 35 37 38 39 41 43 43 44 45 47
25 25 26 26 26 26 26 26 26 26 26 27 27 27 27 27 27 27 27 28 27 27 27 27 28 28 28 29 30 32 33 34 35 36 37 39 40 41 43 44 45 46 47
27 27 27 26 26 26 26 26 26 26 27 27 27 27 27 27 27 27 26 26 27 27 27 27 27 28 28 29 30 31 32 34 36 37 38 39 40 41 42 43 44 45 46
27 27 27 27 27 26 26 26 25 25 25 25 25 25 25 25 26 26 25 25 25 26 26 26 28 28 28 29 31 32 33 34 35 35 36 37 38 39 40 41 42 43 44
Wind_Direction
311 317 322 326 327 327 324 319 303 286 268 247 237 233 229 223 221 220 223 224 224 221 220 221 222 222 224 228 230 229 231 235 232 230 230 234 244 251 253 254 252 247 246
305 313 318 322 324 321 321 319 310 298 268 253 244 235 228 222 221 223 222 223 223 222 222 223 223 224 225 227 229 231 235 237 233 231 234 239 247 252 250 251 245 241 244
300 307 311 315 318 315 315 315 307 301 279 257 245 231 225 223 223 220 223 225 225 224 225 225 224 225 225 227 231 234 235 237 233 232 234 239 244 249 252 252 244 243 247
298 303 309 312 313 311 311 309 300 293 280 261 241 230 227 227 226 224 224 227 228 225 224 223 223 225 227 229 234 238 239 237 235 236 237 240 244 247 251 254 252 249 251
299 303 307 308 312 308 305 302 298 287 275 250 236 228 233 234 229 228 229 231 232 230 227 225 226 228 231 234 236 239 240 239 238 239 241 241 245 249 252 254 254 253 254
301 303 305 307 311 313 307 302 295 283 275 250 238 233 238 238 233 231 230 231 232 231 229 228 229 232 235 237 237 239 240 241 242 242 244 244 247 251 252 253 254 256 258
296 297 300 305 311 316 313 302 294 284 276 257 245 241 238 237 233 231 232 233 233 234 230 230 232 234 236 237 237 239 240 243 244 245 247 248 250 252 254 255 257 259 260
291 294 299 301 306 312 313 304 292 285 275 267 256 249 238 236 236 235 236 235 235 236 233 232 235 235 236 238 239 242 243 244 246 247 249 251 252 254 256 258 261 262 263
286 295 301 302 305 309 308 304 293 286 275 271 265 256 248 242 241 241 241 239 239 238 235 235 237 237 239 241 243 244 245 246 248 250 252 253 254 256 258 260 261 262 264
283 292 295 295 300 304 305 300 289 284 276 272 270 265 256 248 246 244 241 240 240 238 234 236 238 238 240 243 245 246 247 248 250 252 255 255 257 258 259 260 262 263 265
283 288 293 294 298 303 304 300 291 281 278 276 272 268 261 255 250 245 243 241 241 238 236 239 240 241 243 244 245 247 248 250 251 253 255 257 258 259 260 262 265 266 267
277 281 291 296 296 298 296 295 287 283 279 281 276 269 266 262 253 247 241 244 244 240 239 240 243 245 244 243 246 249 249 251 253 254 255 257 259 260 261 264 266 267 268
277 281 283 289 293 298 295 289 286 286 289 288 282 273 269 263 251 247 244 244 245 242 242 243 244 248 247 245 248 252 252 252 255 256 258 259 260 262 264 266 268 269 269
276 279 278 281 287 288 291 288 287 290 291 288 284 276 270 263 254 250 249 250 250 250 248 247 246 247 248 248 250 253 255 257 257 260 262 262 262 263 265 268 269 270 272
274 276 274 274 278 282 285 286 288 291 291 288 286 282 276 266 259 256 256 257 257 257 252 250 247 248 250 252 254 256 259 261 262 263 264 265 264 264 266 269 271 271 272
273 275 277 274 274 277 279 283 287 287 285 281 279 279 278 273 267 263 263 263 262 259 257 253 251 253 254 256 257 258 262 264 265 266 267 268 267 267 269 269 271 272 273
270 273 273 275 273 272 274 277 283 282 280 279 276 275 272 272 268 264 267 265 262 261 258 257 256 258 258 259 261 262 264 266 269 270 271 272 271 272 273 273 274 276 276
271 272 271 271 269 269 271 274 277 278 277 277 276 274 270 269 268 265 265 265 265 263 262 263 264 263 264 262 262 265 267 270 271 273 275 276 276 275 277 278 279 279 279
269 270 268 267 266 265 268 272 275 275 275 274 273 272 272 269 267 267 266 264 264 264 267 267 267 267 267 267 266 268 270 272 273 275 276 277 277 278 281 283 283 283 283
267 267 266 264 264 263 266 270 273 274 274 274 271 269 271 272 269 267 265 264 264 266 267 268 271 270 269 269 269 271 273 275 277 279 279 280 281 282 283 284 284 285 285
266 266 265 264 264 263 265 268 270 273 274 271 269 268 271 272 269 269 268 267 267 267 268 270 272 271 270 270 271 272 274 277 279 281 282 282 283 284 285 286 286 287 288
266 265 264 264 263 263 265 267 268 270 272 270 268 268 269 271 270 271 270 269 269 270 271 271 271 273 272 271 272 274 277 277 278 280 282 283 284 286 288 288 287 289 290
267 265 263 263 264 263 264 266 267 269 268 268 268 268 270 272 271 271 271 271 272 273 271 273 275 275 274 274 274 277 280 279 279 281 283 285 285 287 288 290 290 292 293
265 264 263 264 264 265 265 265 266 267 267 267 267 267 270 272 272 269 269 268 270 272 273 274 275 276 276 275 278 280 281 281 283 286 288 289 289 290 292 293 294 295 295
264 264 263 263 264 265 266 266 266 266 266 266 267 268 270 270 270 269 268 267 269 273 276 277 278 276 276 279 282 283 284 287 288 289 291 292 293 294 295 295 297 298 298
263 264 263 262 263 263 264 266 266 266 267 267 268 270 270 268 269 269 268 270 274 275 275 276 277 278 280 281 284 286 288 290 292 294 295 295 296 297 298 299 300 301 302
Height
5875 5873 5870 5868 5866 5864 5863 5861 5860 5860 5860 5860 5862 5863 5865 5867 5869 5872 5875 5877 5879 5881 5883 5885 5886 5887 5888 5889 5889 5890 5891 5891 5891 5892 5892 5892 5892 5892 5892 5892 5891 5892 5892
5873 5871 5869 5866 5864 5863 5861 5860 5859 5858 5858 5858 5859 5861 5863 5864 5867 5869 5872 5875 5877 5878 5880 5882 5884 5885 5886 5887 5888 5889 5890 5890 5891 5891 5891 5891 5892 5891 5891 5891 5891 5891 5891
5870 5869 5867 5865 5863 5861 5860 5858 5857 5856 5856 5856 5857 5859 5861 5863 5865 5867 5870 5872 5874 5876 5877 5880 5881 5883 5884 5885 5886 5887 5888 5889 5889 5890 5890 5890 5891 5891 5891 5890 5890 5890 5890
5868 5866 5865 5863 5861 5859 5858 5856 5855 5854 5854 5854 5855 5856 5858 5860 5862 5864 5867 5869 5871 5873 5875 5877 5879 5880 5882 5883 5884 5885 5886 5887 5888 5888 5888 5889 5889 5889 5890 5890 5889 5889 5889
5865 5864 5862 5860 5859 5857 5856 5855 5853 5852 5851 5851 5853 5854 5856 5858 5860 5862 5864 5866 5868 5870 5872 5874 5876 5878 5879 5881 5881 5882 5883 5885 5886 5886 5887 5887 5887 5887 5888 5888 5888 5888 5888
5863 5861 5860 5858 5856 5855 5854 5853 5852 5851 5850 5850 5851 5852 5854 5855 5857 5858 5860 5862 5864 5866 5869 5871 5872 5874 5876 5877 5879 5880 5881 5882 5883 5884 5884 5885 5885 5885 5886 5886 5886 5886 5886
5860 5859 5857 5856 5854 5853 5852 5851 5850 5849 5849 5849 5849 5850 5851 5852 5854 5855 5857 5859 5861 5863 5865 5867 5869 5870 5872 5874 5875 5876 5878 5879 5880 5881 5881 5882 5882 5882 5883 5883 5883 5883 5883
5858 5856 5855 5854 5852 5851 5850 5848 5848 5847 5847 5847 5847 5848 5848 5850 5851 5853 5854 5856 5857 5859 5861 5863 5865 5866 5868 5870 5871 5872 5874 5875 5876 5877 5877 5878 5878 5879 5879 5879 5879 5879 5879
5856 5854 5853 5852 5850 5849 5848 5847 5846 5845 5845 5845 5845 5845 5846 5847 5849 5850 5851 5852 5853 5854 5856 5858 5860 5862 5864 5866 5867 5868 5869 5871 5872 5872 5873 5874 5874 5874 5875 5875 5875 5875 5875
5854 5852 5851 5850 5849 5847 5846 5845 5844 5843 5843 5843 5843 5843 5843 5844 5845 5846 5847 5849 5850 5851 5852 5854 5856 5858 5859 5861 5862 5863 5865 5866 5867 5867 5868 5868 5869 5869 5870 5870 5870 5869 5869
5851 5850 5849 5848 5847 5846 5844 5843 5842 5841 5841 5841 5841 5841 5841 5841 5842 5843 5844 5845 5846 5847 5848 5850 5851 5853 5855 5856 5858 5859 5860 5861 5862 5862 5863 5863 5864 5864 5864 5864 5864 5863 5863
5849 5848 5847 5846 5845 5844 5843 5842 5841 5840 5839 5839 5838 5838 5838 5838 5839 5839 5840 5842 5842 5843 5844 5846 5847 5849 5850 5852 5853 5854 5855 5856 5856 5857 5857 5857 5858 5858 5857 5857 5857 5856 5856
5846 5845 5844 5843 5843 5842 5841 5840 5839 5838 5837 5836 5836 5835 5835 5835 5836 5837 5837 5838 5839 5840 5841 5842 5843 5844 5845 5847 5848 5849 5850 5850 5851 5851 5851 5851 5851 5851 5851 5850 5850 5849 5849
5843 5842 5842 5841 5840 5840 5839 5838 5837 5836 5835 5834 5833 5832 5832 5832 5833 5834 5834 5835 5835 5836 5836 5838 5839 5840 5840 5841 5843 5844 5844 5844 5845 5845 5844 5844 5844 5844 5844 5843 5843 5842 5841
5839 5839 5838 5838 5837 5837 5836 5836 5835 5833 5832 5831 5830 5830 5830 5830 5831 5831 5831 5832 5833 5833 5833 5833 5834 5835 5836 5837 5838 5838 5838 5838 5838 5838 5838 5837 5837 5837 5836 5836 5835 5834 5833
5835 5835 5834 5834 5834 5834 5833 5833 5832 5830 5829 5828 5828 5828 5828 5827 5828 5828 5828 5829 5829 5829 5829 5829 5830 5831 5832 5832 5832 5832 5832 5832 5832 5831 5831 5830 5830 5829 5829 5828 5827 5826 5825
5830 5830 5830 5830 5830 5829 5829 5829 5828 5827 5826 5826 5825 5825 5825 5825 5825 5824 5825 5825 5825 5825 5825 5825 5826 5826 5827 5827 5827 5826 5826 5826 5825 5825 5824 5823 5822 5822 5821 5820 5819 5817 5815
5824 5824 5825 5825 5825 5824 5824 5824 5823 5823 5822 5822 5822 5821 5821 5821 5820 5820 5820 5821 5821 5821 5821 5822 5822 5821 5822 5821 5821 5821 5820 5820 5819 5818 5817 5816 5815 5814 5813 5811 5809 5808 5806
5818 5819 5819 5819 5819 5819 5819 5819 5818 5818 5818 5818 5817 5817 5817 5816 5816 5816 5816 5816 5816 5816 5816 5816 5816 5816 5816 5816 5815 5815 5814 5813 5812 5811 5810 5809 5807 5806 5804 5802 5800 5798 5796
5812 5812 5813 5813 5813 5813 5813 5813 5813 5813 5812 5812 5812 5812 5812 5812 5811 5811 5811 5811 5811 5811 5811 5811 5811 5810 5810 5809 5809 5808 5807 5806 5805 5804 5802 5800 5799 5797 5795 5793 5790 5788 5785
5805 5806 5806 5806 5806 5807 5807 5807 5806 5807 5806 5806 5806 5806 5806 5806 5806 5805 5805 5805 5805 5805 5805 5804 5804 5803 5803 5802 5801 5801 5800 5799 5797 5795 5794 5792 5790 5787 5785 5782 5780 5777 5774
5799 5799 5799 5799 5799 5800 5800 5799 5799 5799 5800 5800 5800 5800 5800 5800 5799 5799 5799 5799 5799 5798 5798 5798 5797 5796 5796 5795 5794 5793 5792 5790 5789 5787 5785 5783 5780 5778 5775 5772 5768 5765 5762
5791 5792 5792 5792 5792 5792 5792 5793 5792 5792 5793 5793 5793 5793 5793 5793 5792 5792 5792 5792 5792 5791 5791 5791 5790 5789 5788 5787 5786 5785 5784 5782 5780 5778 5775 5772 5770 5767 5764 5760 5757 5753 5749
5784 5784 5784 5784 5785 5785 5785 5785 5785 5785 5785 5786 5786 5786 5786 5785 5785 5785 5785 5785 5785 5784 5783 5783 5782 5781 5780 5779 5778 5777 5775 5773 5770 5768 5765 5762 5759 5756 5753 5749 5745 5740 5736
5776 5776 5777 5777 5777 5777 5778 5778 5778 5778 5778 5778 5778 5778 5778 5778 5778 5778 5777 5777 5777 5777 5776 5775 5774 5773 5773 5771 5770 5768 5766 5764 5761 5758 5755 5752 5749 5745 5741 5737 5732 5728 5723
5768 5769 5769 5769 5770 5770 5770 5771 5771 5770 5770 5771 5771 5771 5771 5771 5771 5771 5770 5770 5769 5769 5769 5768 5767 5766 5764 5763 5761 5760 5757 5755 5752 5749 5746 5742 5738 5734 5730 5725 5721 5716 5710